GW4853 Weather Reports


Display with metric or nautical units.
time (UTC)temp
F
wind
direction
speed
MPH
gust
MPH
rain 1hr
in
rain 24hr
in
rain mn
in
humidity
%
barometer
mb
20260831012705 76 31 0.0 1.0 0.00 0.00 0.00 91 1019.2
20260831012201 76 31 1.0 1.0 0.00 0.00 0.00 91 1018.9
20260831011659 76 31 1.0 1.0 0.00 0.00 0.00 91 1019.1
20260831011156 76 31 1.0 1.0 0.00 0.00 0.00 91 1019.1
20260831010651 76 31 0.0 1.0 0.00 0.00 0.00 91 1019.1
20260831010146 76 31 1.0 1.0 0.00 0.00 0.00 91 1019.0
20260831005646 76 31 1.0 1.0 0.00 0.00 0.00 91 1018.7
20260831005141 76 31 1.0 2.0 0.00 0.00 0.00 91 1018.9
20260831004637 76 31 1.0 2.0 0.00 0.00 0.00 91 1018.7
20260831004133 76 31 1.0 2.0 0.00 0.00 0.00 91 1018.7
20260831003628 77 31 1.0 1.0 0.00 0.00 0.00 92 1018.7
20260831003124 76 31 1.0 1.0 0.00 0.00 0.00 92 1018.5
20260831002623 76 31 1.0 1.0 0.00 0.00 0.00 92 1018.5
20260831002118 77 31 1.0 1.0 0.00 0.00 0.00 91 1018.3
20260831001614 77 30 1.0 1.0 0.00 0.00 0.00 90 1018.4
20260831001109 77 30 1.0 2.0 0.00 0.00 0.00 89 1018.5
20260831000606 77 29 0.0 1.0 0.00 0.00 0.00 88 1018.3
20260831000106 78 29 0.0 1.0 0.00 0.00 0.00 87 1018.3
20260830235604 78 29 0.0 0.0 0.00 0.00 0.00 87 1018.3
20260830235059 78 29 0.0 1.0 0.00 0.00 0.00 86 1018.3
20260830234554 79 13 1.0 2.0 0.00 0.00 0.00 85 1018.1
20260830234050 79 13 1.0 1.0 0.00 0.00 0.00 84 1018.2
20260830233549 80 13 1.0 1.0 0.00 0.00 0.00 84 1018.3
20260830233046 80 13 0.0 1.0 0.00 0.00 0.00 83 1018.2
20260830232541 81 13 0.0 1.0 0.00 0.00 0.00 83 1018.0
20260830232037 80 12 0.0 0.0 0.00 0.00 0.00 82 1018.1
20260830231533 80 13 1.0 1.0 0.00 0.00 0.00 82 1018.1
20260830231032 80 12 0.0 0.0 0.00 0.00 0.00 81 1018.1
20260830230528 80 68 0.0 2.0 0.00 0.00 0.00 81 1018.1
20260830230023 81 65 1.0 2.0 0.00 0.00 0.00 80 1017.8
20260830225518 81 71 2.0 2.0 0.00 0.00 0.00 79 1017.9
20260830225018 81 74 1.0 2.0 0.00 0.00 0.00 79 1017.8
20260830224516 82 74 0.0 1.0 0.00 0.00 0.00 79 1017.9
20260830224013 83 74 1.0 1.0 0.00 0.00 0.00 77 1018.0
20260830223510 85 71 1.0 1.0 0.00 0.00 0.00 75 1017.9
20260830223009 85 71 0.0 1.0 0.00 0.00 0.00 74 1018.0
20260830222504 86 71 0.0 1.0 0.00 0.00 0.00 70 1017.9
20260830222000 86 235 0.0 2.0 0.00 0.00 0.00 69 1017.9
20260830221455 86 196 0.0 1.0 0.00 0.00 0.00 71 1018.0
20260830220951 87 168 3.0 4.0 0.00 0.00 0.00 65 1018.1
20260830220451 88 188 3.0 6.0 0.00 0.00 0.00 65 1018.1
20260830215948 88 131 2.0 2.0 0.00 0.00 0.00 65 1018.1
20260830215443 87 121 0.0 2.0 0.00 0.00 0.00 69 1018.2
20260830214938 87 103 2.0 3.0 0.00 0.00 0.00 67 1018.3
20260830214433 86 105 0.0 2.0 0.00 0.00 0.00 67 1018.4
20260830213928 86 152 2.0 2.0 0.00 0.00 0.00 69 1018.3
20260830213423 86 117 2.0 2.0 0.00 0.00 0.00 70 1018.5
20260830212919 85 121 1.0 3.0 0.00 0.00 0.00 71 1018.5
20260830212414 85 181 1.0 2.0 0.00 0.00 0.00 69 1018.3
20260830211908 86 201 2.0 3.0 0.00 0.00 0.00 69 1018.5
20260830211403 85 50 0.0 1.0 0.00 0.00 0.00 71 1018.5
20260830210859 85 19 1.0 1.0 0.00 0.00 0.00 71 1018.4
20260830210357 85 277 0.0 1.0 0.00 0.00 0.00 68 1018.5
20260830205855 85 5 0.0 0.0 0.00 0.00 0.00 67 1018.5
20260830205354 85 9 0.0 2.0 0.00 0.00 0.00 66 1018.5
20260830204850 86 358 0.0 4.0 0.00 0.00 0.00 65 1018.4
20260830204349 87 298 1.0 4.0 0.00 0.00 0.00 63 1018.4
20260830203844 89 328 0.0 2.0 0.00 0.00 0.00 63 1018.3
20260830203341 91 348 0.0 2.0 0.00 0.00 0.00 59 1018.5
20260830202840 92 288 1.0 1.0 0.00 0.00 0.00 57 1018.6
20260830202335 92 316 2.0 3.0 0.00 0.00 0.00 56 1018.7
20260830201830 93 241 4.0 6.0 0.00 0.00 0.00 53 1018.5
20260830201325 93 322 2.0 3.0 0.00 0.00 0.00 55 1018.7
20260830200820 93 311 0.0 2.0 0.00 0.00 0.00 55 1018.6
20260830200320 93 281 0.0 2.0 0.00 0.00 0.00 56 1018.7
20260830195815 94 312 1.0 2.0 0.00 0.00 0.00 56 1018.7
20260830195314 93 326 1.0 2.0 0.00 0.00 0.00 50 1018.7
20260830194813 94 289 2.0 2.0 0.00 0.00 0.00 54 1019.0
20260830194312 92 346 0.0 1.0 0.00 0.00 0.00 58 1018.9
20260830193807 91 310 1.0 2.0 0.00 0.00 0.00 59 1019.0
20260830193301 91 325 1.0 2.0 0.00 0.00 0.00 60 1018.9
20260830192757 89 267 2.0 2.0 0.00 0.00 0.00 66 1019.1
20260830192251 87 53 0.0 1.0 0.00 0.00 0.00 71 1019.1
20260830191748 89 39 1.0 2.0 0.00 0.00 0.00 67 1019.1
20260830191247 90 3 0.0 2.0 0.00 0.00 0.00 61 1019.2
20260830190743 91 334 1.0 4.0 0.00 0.00 0.00 61 1019.4
20260830190244 93 347 1.0 2.0 0.00 0.00 0.00 59 1019.1
20260830185741 92 121 1.0 1.0 0.00 0.00 0.00 59 1019.3
20260830185237 91 246 1.0 3.0 0.00 0.00 0.00 62 1019.3
20260830184737 91 239 2.0 3.0 0.00 0.00 0.00 60 1019.3
20260830184236 91 301 0.0 1.0 0.00 0.00 0.00 61 1019.6
20260830183732 91 7 1.0 2.0 0.00 0.00 0.00 61 1019.6
20260830183226 92 247 1.0 2.0 0.00 0.00 0.00 63 1019.6
20260830182721 92 254 0.0 9.0 0.00 0.00 0.00 59 1019.9
20260830182218 91 219 1.0 3.0 0.00 0.00 0.00 60 1019.9
20260830181714 90 310 2.0 3.0 0.00 0.00 0.00 66 1019.9
20260830181214 90 337 3.0 4.0 0.00 0.00 0.00 66 1020.2
20260830180713 90 320 1.0 3.0 0.00 0.00 0.00 68 1020.3
20260830180208 89 344 1.0 6.0 0.00 0.00 0.00 67 1020.5
20260830175708 89 38 0.0 1.0 0.00 0.00 0.00 67 1020.3
20260830175202 89 40 0.0 2.0 0.00 0.00 0.00 66 1020.5
20260830174657 89 298 2.0 2.0 0.00 0.00 0.00 67 1020.5
20260830174153 89 303 0.0 1.0 0.00 0.00 0.00 68 1020.6
20260830173647 89 325 3.0 3.0 0.00 0.00 0.00 66 1020.8
20260830173142 88 243 1.0 1.0 0.00 0.00 0.00 68 1020.7
20260830172639 88 62 2.0 4.0 0.00 0.00 0.00 67 1020.6
20260830172136 88 2 1.0 3.0 0.00 0.00 0.00 70 1020.8
20260830171636 90 257 4.0 7.0 0.00 0.00 0.00 65 1020.9
20260830171136 89 293 2.0 3.0 0.00 0.00 0.00 68 1020.9
20260830170631 89 215 3.0 4.0 0.00 0.00 0.00 66 1021.1
20260830170130 89 153 1.0 1.0 0.00 0.00 0.00 68 1021.1
20260830165625 88 244 1.0 4.0 0.00 0.00 0.00 69 1021.1
20260830165121 87 203 3.0 6.0 0.00 0.00 0.00 68 1021.0
20260830164617 87 220 0.0 3.0 0.00 0.00 0.00 70 1021.2
20260830164113 87 180 1.0 6.0 0.00 0.00 0.00 68 1021.4
20260830163610 87 296 2.0 4.0 0.00 0.00 0.00 70 1021.3
20260830163109 87 267 1.0 3.0 0.00 0.00 0.00 69 1021.3
20260830162604 87 134 0.0 3.0 0.00 0.00 0.00 70 1021.4
20260830162100 87 80 0.0 4.0 0.00 0.00 0.00 68 1021.3
20260830161600 87 255 2.0 3.0 0.00 0.00 0.00 68 1021.4
20260830161055 87 209 2.0 7.0 0.00 0.00 0.00 69 1021.3
20260830160551 87 215 0.0 3.0 0.00 0.00 0.00 71 1021.3
20260830160046 86 147 2.0 3.0 0.00 0.00 0.00 74 1021.7
20260830155542 86 139 3.0 3.0 0.00 0.00 0.00 72 1021.6
20260830155038 85 204 2.0 4.0 0.00 0.00 0.00 71 1021.8
20260830154532 85 151 3.0 6.0 0.00 0.00 0.00 71 1021.7
20260830154029 84 159 0.0 4.0 0.00 0.00 0.00 72 1021.7
20260830153525 85 249 4.0 6.0 0.00 0.00 0.00 72 1021.7
20260830153025 85 183 3.0 4.0 0.00 0.00 0.00 70 1021.6
20260830152519 84 302 2.0 6.0 0.00 0.00 0.00 72 1021.8
20260830152019 83 196 2.0 4.0 0.00 0.00 0.00 72 1021.8
20260830151518 84 231 4.0 6.0 0.00 0.00 0.00 71 1021.8
20260830151014 84 230 1.0 3.0 0.00 0.00 0.00 75 1021.6
20260830150513 83 315 1.0 2.0 0.00 0.00 0.00 74 1021.8
20260830150008 83 326 1.0 2.0 0.00 0.00 0.00 74 1021.8
20260830145507 84 145 2.0 4.0 0.00 0.00 0.00 74 1021.9
20260830145003 83 185 2.0 3.0 0.00 0.00 0.00 74 1021.6
20260830144459 83 213 1.0 3.0 0.00 0.00 0.00 73 1021.6
20260830143954 83 261 0.0 3.0 0.00 0.00 0.00 74 1021.7
20260830143449 82 206 2.0 3.0 0.00 0.00 0.00 74 1021.7
20260830142948 82 187 2.0 3.0 0.00 0.00 0.00 75 1021.8
20260830142443 81 143 1.0 3.0 0.00 0.00 0.00 78 1021.7
20260830141938 81 121 1.0 3.0 0.00 0.00 0.00 78 1021.6
20260830141433 81 158 2.0 3.0 0.00 0.00 0.00 77 1021.6
20260830140928 80 119 1.0 3.0 0.00 0.00 0.00 79 1021.5
20260830140423 80 98 1.0 1.0 0.00 0.00 0.00 80 1021.7
20260830135922 81 151 2.0 3.0 0.00 0.00 0.00 78 1021.5
20260830135418 80 155 0.0 2.0 0.00 0.00 0.00 81 1021.4
20260830134914 78 163 0.0 0.0 0.00 0.00 0.00 84 1021.6
20260830134409 77 119 1.0 2.0 0.00 0.00 0.00 85 1021.1
20260830133905 76 121 1.0 1.0 0.00 0.00 0.00 87 1021.3
20260830133400 76 133 1.0 2.0 0.00 0.00 0.00 87 1021.4
20260830132855 76 150 0.0 1.0 0.00 0.00 0.00 88 1021.1
20260830132351 75 152 1.0 3.0 0.00 0.00 0.00 90 1021.1
20260830131850 74 117 0.0 1.0 0.00 0.00 0.00 94 1021.0
20260830131344 73 122 0.0 0.0 0.00 0.00 0.00 96 1020.9
20260830130839 74 207 1.0 1.0 0.00 0.00 0.00 98 1020.8
20260830130334 73 136 0.0 1.0 0.00 0.00 0.00 99 1020.7
20260830125834 72 121 0.0 0.0 0.00 0.00 0.00 99 1020.8
20260830125330 72 152 1.0 2.0 0.00 0.00 0.00 99 1020.9
20260830124827 73 29 0.0 1.0 0.00 0.00 0.00 99 1020.9
20260830124322 72 28 0.0 0.0 0.00 0.00 0.00 99 1020.7
20260830123819 71 28 0.0 1.0 0.00 0.00 0.00 99 1020.7
20260830123314 71 28 0.0 0.0 0.00 0.00 0.00 99 1020.7
20260830122812 70 28 0.0 1.0 0.00 0.00 0.00 99 1020.5
20260830122308 70 28 0.0 0.0 0.00 0.00 0.00 99 1020.5
20260830121803 69 28 0.0 0.0 0.00 0.00 0.00 99 1020.5
20260830121302 68 28 0.0 0.0 0.00 0.00 0.00 99 1020.5
20260830120757 67 28 0.0 1.0 0.00 0.00 0.00 99 1020.3
20260830120253 67 28 0.0 0.0 0.00 0.00 0.00 99 1020.5
20260830115749 67 28 0.0 1.0 0.00 0.00 0.00 99 1020.4
20260830115244 67 29 0.0 0.0 0.00 0.00 0.00 99 1020.4
20260830114741 66 29 0.0 0.0 0.00 0.00 0.00 99 1020.3
20260830114241 66 29 0.0 0.0 0.00 0.00 0.00 99 1020.1
20260830113737 66 29 0.0 1.0 0.00 0.00 0.00 99 1020.2
20260830113237 66 29 0.0 1.0 0.00 0.00 0.00 99 1020.2
20260830112733 66 29 1.0 1.0 0.00 0.00 0.00 99 1020.3
20260830112229 66 28 0.0 0.0 0.00 0.00 0.00 99 1020.1
20260830111725 66 28 0.0 0.0 0.00 0.00 0.00 99 1020.3
20260830111220 65 28 0.0 1.0 0.00 0.00 0.00 99 1020.1
20260830110720 65 29 0.0 0.0 0.00 0.00 0.00 99 1020.1
20260830110217 65 29 0.0 1.0 0.00 0.00 0.00 99 1020.1
20260830105715 65 29 0.0 0.0 0.00 0.00 0.00 99 1019.9
20260830105212 65 29 0.0 0.0 0.00 0.00 0.00 99 1020.0
20260830104708 65 28 0.0 0.0 0.00 0.00 0.00 99 1020.0
20260830104205 65 28 0.0 0.0 0.00 0.00 0.00 99 1020.1
20260830103704 65 28 0.0 0.0 0.00 0.00 0.00 99 1020.1
20260830103159 65 28 0.0 0.0 0.00 0.00 0.00 99 1020.0
20260830102657 65 28 0.0 0.0 0.00 0.00 0.00 99 1020.0
20260830102154 65 28 0.0 0.0 0.00 0.00 0.00 99 1019.8
20260830101649 65 28 0.0 0.0 0.00 0.00 0.00 99 1019.8
20260830101144 65 28 0.0 0.0 0.00 0.00 0.00 99 1020.0
20260830100639 65 28 0.0 0.0 0.00 0.00 0.00 99 1020.0
20260830100138 65 28 0.0 0.0 0.00 0.00 0.00 99 1019.9
20260830095637 65 28 0.0 0.0 0.00 0.00 0.00 99 1019.8
20260830095134 65 28 0.0 0.0 0.00 0.00 0.00 99 1020.0
20260830094630 65 28 0.0 0.0 0.00 0.00 0.00 99 1019.9
20260830094125 65 28 0.0 0.0 0.00 0.00 0.00 99 1020.0
20260830093620 65 28 0.0 0.0 0.00 0.00 0.00 99 1019.9
20260830093117 65 28 0.0 0.0 0.00 0.00 0.00 99 1020.0
20260830092611 65 28 0.0 0.0 0.00 0.00 0.00 99 1019.9
20260830092109 65 28 0.0 0.0 0.00 0.00 0.00 99 1019.9
20260830091603 66 28 0.0 0.0 0.00 0.00 0.00 99 1020.2
20260830091102 66 28 0.0 0.0 0.00 0.00 0.00 99 1019.9
20260830090557 66 28 0.0 0.0 0.00 0.00 0.00 99 1019.8
20260830090053 65 28 0.0 0.0 0.00 0.00 0.00 99 1019.9
20260830085547 65 28 0.0 0.0 0.00 0.00 0.00 99 1019.9
20260830085043 65 28 0.0 0.0 0.00 0.00 0.00 99 1020.0
20260830084538 65 28 0.0 0.0 0.00 0.00 0.00 99 1019.9
20260830084037 65 28 0.0 0.0 0.00 0.00 0.00 99 1020.0
20260830083533 65 28 0.0 0.0 0.00 0.00 0.00 99 1019.8
20260830083033 65 28 0.0 0.0 0.00 0.00 0.00 99 1019.8
20260830082529 65 28 0.0 0.0 0.00 0.00 0.00 99 1019.9
20260830082024 65 28 0.0 0.0 0.00 0.00 0.00 99 1020.1
20260830081519 66 28 0.0 0.0 0.00 0.00 0.00 99 1020.0
20260830081018 66 28 0.0 0.0 0.00 0.00 0.00 99 1020.0
20260830080514 65 28 0.0 0.0 0.00 0.00 0.00 99 1020.0
20260830080009 66 28 0.0 0.0 0.00 0.00 0.00 99 1020.1
20260830075504 66 28 0.0 0.0 0.00 0.00 0.00 99 1019.9
20260830074959 66 28 0.0 0.0 0.00 0.00 0.00 99 1020.0
20260830074455 65 28 0.0 0.0 0.00 0.00 0.00 99 1019.8
20260830073950 66 28 0.0 0.0 0.00 0.00 0.00 99 1019.9
20260830073446 66 28 0.0 0.0 0.00 0.00 0.00 99 1019.9
20260830072941 66 28 0.0 0.0 0.00 0.00 0.00 99 1019.9
20260830072437 66 28 0.0 0.0 0.00 0.00 0.00 99 1020.0
20260830071936 66 28 0.0 0.0 0.00 0.00 0.00 99 1019.8
20260830071432 66 28 0.0 0.0 0.00 0.00 0.00 99 1020.0
20260830070930 66 28 0.0 0.0 0.00 0.00 0.00 99 1019.8
20260830070425 66 28 0.0 0.0 0.00 0.00 0.00 99 1020.0
20260830065924 66 28 0.0 0.0 0.00 0.00 0.00 99 1019.9
20260830065423 66 28 0.0 0.0 0.00 0.00 0.00 99 1019.9
20260830064921 66 28 0.0 0.0 0.00 0.00 0.00 99 1019.6
20260830064418 67 28 0.0 0.0 0.00 0.00 0.00 99 1019.9
20260830063917 67 28 0.0 0.0 0.00 0.00 0.00 99 1019.7
20260830063417 67 28 0.0 0.0 0.00 0.00 0.00 99 1019.8
20260830062917 67 28 0.0 0.0 0.00 0.00 0.00 99 1020.1
20260830062416 67 28 0.0 0.0 0.00 0.00 0.00 99 1019.9
20260830061911 66 28 0.0 0.0 0.00 0.00 0.00 99 1020.0
20260830061406 66 28 0.0 0.0 0.00 0.00 0.00 99 1019.9
20260830060903 67 28 0.0 0.0 0.00 0.00 0.00 99 1020.0
20260830060359 67 28 0.0 0.0 0.00 0.00 0.00 99 1019.9
20260830055859 67 28 0.0 0.0 0.00 0.00 0.00 99 1019.9
20260830055355 67 28 0.0 0.0 0.00 0.00 0.00 99 1020.0
20260830054850 67 28 0.0 0.0 0.00 0.00 0.00 99 1019.9
20260830054346 67 28 0.0 0.0 0.00 0.00 0.00 99 1020.0
20260830053841 67 28 0.0 0.0 0.00 0.00 0.00 99 1019.9
20260830053336 67 28 0.0 0.0 0.00 0.00 0.00 99 1020.1
20260830052835 67 28 0.0 0.0 0.00 0.00 0.00 99 1020.1
20260830052331 67 28 0.0 0.0 0.00 0.00 0.00 99 1020.0
20260830051827 67 28 0.0 0.0 0.00 0.00 0.00 99 1020.1
20260830051322 67 28 0.0 0.0 0.00 0.00 0.00 99 1019.9
20260830050821 67 28 0.0 0.0 0.00 0.00 0.00 99 1020.1
20260830050316 67 28 0.0 0.0 0.00 0.00 0.00 99 1020.0
20260830045814 67 28 0.0 0.0 0.00 0.00 0.00 99 1020.1
20260830045309 67 28 0.0 0.0 0.00 0.00 0.00 99 1020.2
20260830044808 67 28 0.0 0.0 0.00 0.00 0.00 99 1020.0
20260830044304 67 28 0.0 0.0 0.00 0.00 0.00 99 1020.1
20260830043759 67 28 0.0 0.0 0.00 0.00 0.00 99 1020.1
20260830043259 67 28 0.0 0.0 0.00 0.00 0.00 99 1020.1
20260830042757 67 28 0.0 0.0 0.00 0.00 0.00 99 1020.0
20260830042252 67 28 0.0 0.0 0.00 0.00 0.00 99 1020.2
20260830041750 67 28 0.0 0.0 0.00 0.00 0.00 99 1020.1
20260830041244 67 28 0.0 0.0 0.00 0.00 0.00 99 1020.2
20260830040740 67 28 0.0 0.0 0.00 0.00 0.00 99 1020.2
20260830040237 67 28 0.0 0.0 0.00 0.00 0.00 99 1020.1
20260830035734 67 28 0.0 0.0 0.00 0.00 0.00 99 1020.3
20260830035229 67 28 0.0 0.0 0.00 0.00 0.00 99 1020.0
20260830034724 67 28 0.0 0.0 0.00 0.00 0.00 99 1020.0
20260830034219 67 28 0.0 0.0 0.00 0.00 0.00 99 1019.9
20260830033715 67 28 0.0 0.0 0.00 0.00 0.00 99 1020.2
20260830033209 67 28 0.0 0.0 0.00 0.00 0.00 99 1020.1
20260830032708 68 28 0.0 0.0 0.00 0.00 0.00 99 1020.0
20260830032203 68 28 0.0 0.0 0.00 0.00 0.00 99 1020.0
20260830031658 68 28 0.0 0.0 0.00 0.00 0.00 99 1020.1
20260830031154 68 28 0.0 0.0 0.00 0.00 0.00 99 1020.3
20260830030649 68 28 0.0 0.0 0.00 0.00 0.00 99 1020.2
20260830030145 68 28 0.0 0.0 0.00 0.00 0.00 99 1019.9
20260830025643 68 28 0.0 0.0 0.00 0.00 0.00 99 1020.0
20260830025137 68 28 0.0 0.0 0.00 0.00 0.00 99 1020.2
20260830024633 68 28 0.0 0.0 0.00 0.00 0.00 99 1020.1
20260830024131 68 28 0.0 0.0 0.00 0.00 0.00 98 1020.0
20260830023629 68 28 0.0 0.0 0.00 0.00 0.00 98 1020.0
20260830023124 68 28 0.0 0.0 0.00 0.00 0.00 98 1019.9
20260830022619 68 28 0.0 0.0 0.00 0.00 0.00 98 1020.2
20260830022115 69 28 0.0 0.0 0.00 0.00 0.00 98 1020.1
20260830021614 69 28 0.0 0.0 0.00 0.00 0.00 98 1019.9
20260830021109 69 28 0.0 1.0 0.00 0.00 0.00 98 1019.9
20260830020609 69 28 0.0 0.0 0.00 0.00 0.00 97 1020.0
20260830020104 69 28 0.0 0.0 0.00 0.00 0.00 97 1019.9
20260830015558 69 28 0.0 0.0 0.00 0.00 0.00 97 1019.8
20260830015054 69 28 0.0 0.0 0.00 0.00 0.00 97 1019.9
20260830014549 69 28 0.0 0.0 0.00 0.00 0.00 97 1019.8
20260830014045 70 28 0.0 0.0 0.00 0.00 0.00 96 1020.0
20260830013541 70 28 0.0 0.0 0.00 0.00 0.00 96 1019.9
20260830013036 70 28 0.0 1.0 0.00 0.00 0.00 96 1019.7